�������C�����ː����j�^�v���󋵏��
Date,Time,Cs137(Bq/L),Cs134(Bq/L),�S��(Bq/L)
2017/01/01,00:00,0.84,0.059,ND
2017/01/01,00:10,0.75,0.080,ND
2017/01/01,00:20,0.75,0.073,ND
2017/01/01,00:30,0.75,0.076,ND
2017/01/01,00:40,0.73,0.074,ND
2017/01/01,00:50,0.81,0.048,9.2
2017/01/01,01:00,0.83,0.049,9.7
2017/01/01,01:10,0.80,0.087,12
2017/01/01,01:20,0.79,0.088,13
2017/01/01,01:30,0.83,0.063,11
2017/01/01,01:40,0.84,0.061,9.0
2017/01/01,01:50,0.72,0.095,ND
2017/01/01,02:00,0.79,0.064,ND
2017/01/01,02:10,0.78,0.053,ND
2017/01/01,02:20,0.76,0.053,ND
2017/01/01,02:30,0.70,0.082,ND
2017/01/01,02:40,0.68,0.077,ND
2017/01/01,02:50,0.69,0.047,ND
2017/01/01,03:00,0.69,0.041,ND
2017/01/01,03:10,0.56,0.077,ND
2017/01/01,03:20,0.65,0.040,ND
2017/01/01,03:30,0.62,0.036,ND
2017/01/01,03:40,0.59,0.037,ND
2017/01/01,03:50,0.58,0.049,ND
2017/01/01,04:00,0.49,0.075,10
2017/01/01,04:10,0.47,0.082,10
2017/01/01,04:20,0.45,0.093,ND
2017/01/01,04:30,0.46,0.10,ND
2017/01/01,04:40,0.47,0.10,ND
2017/01/01,04:50,0.59,0.057,ND
2017/01/01,05:00,0.59,0.056,ND
2017/01/01,05:10,0.48,0.086,ND
2017/01/01,05:20,0.52,0.076,ND
2017/01/01,05:30,0.52,0.070,ND
2017/01/01,05:40,0.52,0.063,ND
2017/01/01,05:50,0.54,0.056,ND
2017/01/01,06:00,0.55,0.049,ND
2017/01/01,06:10,0.55,0.053,ND
2017/01/01,06:20,0.68,ND,ND
2017/01/01,06:30,0.55,0.054,ND
2017/01/01,06:40,0.54,0.060,ND
2017/01/01,06:50,0.52,0.060,ND
2017/01/01,07:00,0.51,0.064,ND
2017/01/01,07:10,0.50,0.059,ND
2017/01/01,07:20,0.52,0.053,ND
2017/01/01,07:30,0.55,0.049,ND
2017/01/01,07:40,0.68,ND,ND
2017/01/01,07:50,0.68,ND,ND
2017/01/01,08:00,0.69,ND,ND
2017/01/01,08:10,0.66,0.028,ND
2017/01/01,08:20,0.65,0.029,ND
2017/01/01,08:30,0.50,0.074,ND
2017/01/01,08:40,0.52,0.071,ND
2017/01/01,08:50,0.54,0.066,ND
2017/01/01,09:00,0.54,0.067,ND
2017/01/01,09:10,0.56,0.055,ND
2017/01/01,09:20,0.57,0.050,ND
2017/01/01,09:30,0.57,0.056,ND
2017/01/01,09:40,0.55,0.063,ND
2017/01/01,09:50,0.56,0.069,ND
2017/01/01,10:00,0.57,0.070,ND
2017/01/01,10:10,0.55,0.088,ND
2017/01/01,10:20,0.54,0.087,ND
2017/01/01,10:30,0.56,0.089,ND
2017/01/01,10:40,0.58,0.085,ND
2017/01/01,10:50,0.59,0.077,ND
2017/01/01,11:00,0.59,0.085,ND
2017/01/01,11:10,0.61,0.081,ND
2017/01/01,11:20,0.62,0.084,ND
2017/01/01,11:30,0.61,0.090,ND
2017/01/01,11:40,0.60,0.10,ND
2017/01/01,11:50,0.58,0.11,ND
2017/01/01,12:00,0.60,0.10,ND
2017/01/01,12:10,0.59,0.10,ND
2017/01/01,12:20,0.60,0.10,ND
2017/01/01,12:30,0.63,0.079,ND
2017/01/01,12:40,0.63,0.079,ND
2017/01/01,12:50,0.64,0.067,ND
2017/01/01,13:00,0.64,0.064,ND
2017/01/01,13:10,0.65,0.057,ND
2017/01/01,13:20,0.74,0.033,ND
2017/01/01,13:30,0.62,0.077,ND
2017/01/01,13:40,0.71,0.034,ND
2017/01/01,13:50,0.60,0.083,ND
2017/01/01,14:00,0.58,0.091,ND
2017/01/01,14:10,0.57,0.088,ND
2017/01/01,14:20,0.55,0.084,ND
2017/01/01,14:30,0.54,0.087,ND
2017/01/01,14:40,0.54,0.088,ND
2017/01/01,14:50,0.54,0.084,ND
2017/01/01,15:00,0.55,0.068,ND
2017/01/01,15:10,0.54,0.067,ND
2017/01/01,15:20,0.62,0.034,ND
2017/01/01,15:30,0.62,0.033,ND
2017/01/01,15:40,0.60,0.037,ND
2017/01/01,15:50,0.57,0.030,ND
2017/01/01,16:00,0.58,0.031,ND
2017/01/01,16:10,0.56,0.029,ND
2017/01/01,16:20,0.48,0.057,ND
2017/01/01,16:30,0.48,0.057,ND
2017/01/01,16:40,0.60,ND,ND
2017/01/01,16:50,0.63,ND,ND
2017/01/01,17:00,0.50,0.046,ND
2017/01/01,17:10,0.64,ND,ND
2017/01/01,17:20,0.65,ND,ND
2017/01/01,17:30,0.51,0.057,ND
2017/01/01,17:40,0.51,0.061,ND
2017/01/01,17:50,0.48,0.064,ND
2017/01/01,18:00,0.49,0.066,ND
2017/01/01,18:10,0.50,0.063,ND
2017/01/01,18:20,0.50,0.071,ND
2017/01/01,18:30,0.49,0.072,ND
2017/01/01,18:40,0.51,0.072,ND
2017/01/01,18:50,0.52,0.071,ND
2017/01/01,19:00,0.53,0.077,ND
2017/01/01,19:10,0.54,0.087,ND
2017/01/01,19:20,0.56,0.081,ND
2017/01/01,19:30,0.59,0.079,8.8
2017/01/01,19:40,0.59,0.082,ND
2017/01/01,19:50,0.60,0.087,ND
2017/01/01,20:00,0.62,0.082,9.0
2017/01/01,20:10,0.61,0.080,ND
2017/01/01,20:20,0.59,0.089,ND
2017/01/01,20:30,0.63,0.085,ND
2017/01/01,20:40,0.63,0.087,ND
2017/01/01,20:50,0.64,0.090,ND
2017/01/01,21:00,0.64,0.10,ND
2017/01/01,21:10,0.64,0.10,ND
2017/01/01,21:20,0.68,0.090,ND
2017/01/01,21:30,0.65,0.094,ND
2017/01/01,21:40,0.68,0.082,ND
2017/01/01,21:50,0.70,0.077,ND
2017/01/01,22:00,0.70,0.069,ND
2017/01/01,22:10,0.71,0.072,ND
2017/01/01,22:20,0.73,0.067,ND
2017/01/01,22:30,0.75,0.065,ND
2017/01/01,22:40,0.74,0.081,ND
2017/01/01,22:50,0.71,0.093,ND
2017/01/01,23:00,0.71,0.094,ND
2017/01/01,23:10,0.72,0.093,ND
2017/01/01,23:20,0.69,0.11,ND
2017/01/01,23:30,0.67,0.11,ND
2017/01/01,23:40,0.67,0.11,ND
2017/01/01,23:50,0.67,0.11,ND
